RH
19 20 20 21 21 21 22 22 22 22 21 21 21 20 21 21 21 21 20 21 20 18 17 17 18 17 15 14 14 13 12 11 9 9 9 9 9 8 8 7 7 6 7 7 6 7 6 7 7 7 7 7 8 8 7 7 7 7 8 7 16 47 59 45 58 87 101 100 80 78 85 67 67 82 92 102 98 100 93 74 86 98 90 94 102 100 102 97
20 21 22 22 22 22 23 23 23 23 23 22 22 21 20 21 21 22 21 22 22 21 20 18 19 19 18 16 15 15 15 14 12 10 9 9 9 8 9 8 7 7 6 7 6 7 7 6 7 7 7 7 7 8 7 8 8 8 10 8 22 58 69 59 67 84 93 96 86 74 76 69 61 69 83 89 84 83 78 66 78 100 104 101 103 103 102 101
22 23 23 23 23 22 21 21 22 22 23 22 22 22 20 20 20 21 21 22 23 22 22 20 19 20 20 18 16 16 16 16 15 13 11 9 9 9 9 8 8 8 7 7 7 6 7 6 7 7 7 8 7 8 8 7 9 9 10 9 16 29 39 53 64 71 75 69 74 78 68 60 62 76 85 79 72 71 71 66 66 80 98 103 102 103 102 104
21 23 23 23 22 20 19 19 20 21 22 22 22 22 21 20 19 20 20 21 23 24 23 22 21 20 20 20 19 17 16 16 17 16 14 11 10 9 9 9 8 8 8 7 7 6 7 6 6 7 6 7 7 7 8 7 9 9 10 14 17 15 16 37 46 42 43 33 39 63 65 56 61 80 91 84 70 63 65 65 62 61 71 91 102 102 99 104
18 19 20 20 19 17 18 19 20 21 22 22 22 22 21 20 20 20 20 20 21 23 24 24 23 22 20 20 20 20 18 16 17 17 16 15 12 10 9 9 9 9 9 7 7 7 7 7 6 7 6 7 7 7 8 8 11 14 14 16 18 19 16 20 23 21 26 27 24 41 62 64 62 71 82 85 70 57 55 53 56 51 51 71 89 96 95 99
18 18 18 18 18 18 19 20 21 22 21 22 21 21 21 21 21 21 22 21 21 22 24 25 24 24 23 21 20 21 20 18 17 17 17 17 15 13 10 9 10 9 9 9 8 7 7 7 6 7 7 6 7 7 9 7 12 25 27 21 14 16 21 18 16 18 22 28 26 32 52 57 49 52 64 73 64 53 54 48 44 42 46 57 67 78 82 86
20 20 19 19 19 19 19 20 20 20 19 20 20 21 21 22 22 22 22 22 22 23 23 25 25 25 25 23 21 21 21 20 18 17 17 18 18 16 13 10 10 9 10 10 9 8 7 7 7 7 7 6 7 6 9 8 10 20 23 19 13 10 15 17 15 16 15 16 18 23 31 31 27 34 46 57 57 52 54 49 39 33 38 53 66 79 83 85
20 20 20 19 19 19 19 18 18 18 18 18 19 21 22 22 22 21 21 22 22 23 24 25 26 26 26 24 23 21 21 22 20 19 17 17 18 18 16 13 11 10 10 10 10 9 8 8 7 7 7 6 7 6 7 10 9 10 10 12 14 10 10 12 11 11 10 8 8 15 24 24 20 27 37 43 51 53 47 48 52 37 27 49 77 92 95 88
22 22 21 20 19 19 19 18 18 18 18 19 20 21 21 21 20 19 19 20 21 23 24 24 26 26 26 25 24 23 21 22 21 20 19 18 19 19 19 16 14 12 10 11 11 10 8 8 8 7 8 7 7 7 6 10 11 10 9 10 10 9 10 10 9 7 6 7 7 12 24 29 24 29 39 38 47 55 43 55 81 63 33 44 72 89 92 83
22 22 21 20 19 18 18 18 18 18 18 18 19 19 19 18 18 18 17 18 19 21 23 24 26 26 26 25 24 24 24 23 22 21 20 19 19 19 20 19 17 14 12 11 11 11 10 8 9 7 8 8 8 8 8 10 11 11 9 8 7 7 9 8 9 11 8 7 8 13 23 32 32 36 45 40 44 50 44 69 102 90 62 48 55 73 72 66
22 21 19 18 17 17 17 18 17 17 17 17 18 17 17 17 17 18 17 17 18 19 22 24 26 26 26 25 25 27 25 23 22 22 22 20 19 19 20 20 19 17 14 12 11 12 11 9 9 9 8 9 11 11 9 9 9 9 8 7 7 6 8 8 13 20 18 11 8 12 20 32 40 45 50 46 47 45 43 78 106 98 91 68 52 65 59 48
19 18 17 17 17 17 17 17 17 16 16 16 17 17 17 17 17 18 17 17 18 18 20 22 25 27 26 26 26 26 25 24 24 23 22 21 20 20 20 21 20 19 16 14 12 12 12 11 9 9 9 8 12 13 11 9 8 8 7 6 7 7 10 10 13 19 20 15 10 12 21 32 40 40 44 45 50 47 39 70 104 100 100 90 69 68 56 49
18 17 17 18 17 17 16 16 16 16 17 16 16 16 16 17 17 18 18 18 18 18 19 21 23 25 26 28 28 25 25 26 25 24 23 21 21 20 20 21 21 21 18 16 14 12 13 12 10 10 10 8 10 12 11 10 8 8 7 6 8 9 10 10 10 11 12 12 11 14 23 31 36 37 42 42 43 47 35 50 93 103 99 101 94 84 64 56
18 18 18 18 17 17 16 16 16 16 17 16 16 16 16 16 17 18 18 19 19 19 19 19 21 23 24 28 29 23 23 27 26 25 24 22 23 21 19 21 22 22 20 18 15 13 13 13 12 10 10 9 8 10 10 9 8 8 7 7 9 11 11 9 8 7 7 9 10 13 22 30 38 45 50 44 36 41 34 31 69 100 102 99 100 100 87 75
18 18 18 18 17 17 17 16 17 17 17 16 16 16 16 16 17 17 18 19 19 20 19 19 19 20 21 25 26 21 23 29 30 28 26 24 21 19 19 21 22 22 21 19 17 14 13 13 13 11 10 10 9 9 9 9 9 8 9 10 11 12 13 12 11 13 13 12 10 11 18 24 30 35 34 31 28 33 34 26 40 76 101 105 104 102 95 95
18 18 18 18 18 17 18 17 18 18 18 17 17 17 17 16 16 17 18 19 19 20 20 20 19 19 19 20 22 21 23 27 29 27 24 21 19 19 20 21 22 23 22 21 19 16 14 14 14 12 11 10 9 9 9 9 8 8 11 14 15 16 17 19 20 23 26 25 22 19 21 22 21 18 13 13 17 21 27 28 27 42 68 80 85 91 88 91
19 19 19 19 18 18 19 19 20 20 19 19 18 18 18 18 18 17 17 18 19 20 20 21 20 20 19 19 19 20 20 23 25 24 22 19 19 21 21 22 23 22 22 22 20 18 15 14 15 13 11 11 10 9 9 9 8 9 11 14 16 18 22 28 29 27 28 29 29 25 21 20 17 16 19 17 14 12 13 21 21 21 29 30 32 57 76 74
20 20 20 20 20 20 20 21 21 21 21 20 20 19 19 19 20 19 18 18 18 19 20 21 21 21 20 19 19 19 18 20 23 21 20 19 19 21 22 22 23 22 21 22 22 20 17 14 15 14 12 11 11 10 10 9 9 8 11 16 18 18 22 33 41 41 32 23 22 22 17 18 19 22 39 43 32 27 23 21 19 13 13 12 7 22 47 52
21 21 22 23 23 22 21 21 22 22 21 20 20 20 20 20 20 20 20 20 19 19 19 19 19 19 19 19 19 20 19 19 20 19 19 18 18 19 21 22 22 22 20 21 23 22 18 15 15 15 14 12 11 11 10 10 10 8 9 16 20 19 17 22 38 50 43 26 17 21 23 28 33 33 45 53 47 44 41 37 33 23 14 11 8 8 20 30
23 24 24 24 24 23 21 22 23 23 22 20 20 20 21 23 22 22 21 21 20 20 20 19 19 18 18 18 19 19 19 18 19 19 18 17 17 18 19 20 21 22 20 19 24 24 19 15 15 16 15 13 11 11 11 10 9 9 8 11 18 23 23 21 30 48 56 44 25 21 28 34 40 44 49 54 52 46 45 50 49 34 18 11 10 9 10 15
25 25 24 24 25 24 23 24 25 25 24 23 22 22 23 24 24 23 23 23 22 21 21 20 19 19 19 19 18 18 19 19 19 19 18 17 16 18 18 18 20 21 19 20 25 25 19 16 16 16 16 14 12 11 12 11 9 9 9 9 14 28 40 40 39 48 64 65 42 24 26 30 34 44 51 54 52 47 50 58 53 34 20 13 11 13 12 11
26 25 25 26 28 27 25 27 28 28 28 27 26 26 25 26 26 25 25 26 26 24 22 20 19 19 20 20 19 19 18 17 18 18 18 17 17 19 18 17 20 20 19 22 25 25 19 16 17 16 16 16 13 12 12 12 10 8 9 9 10 26 51 60 51 48 60 72 59 34 27 28 27 33 41 46 52 56 58 56 46 34 27 20 15 15 15 16
26 26 28 30 31 31 30 32 34 33 31 30 30 29 29 29 30 28 26 27 30 28 24 22 19 18 20 20 21 20 18 16 16 17 17 18 18 20 19 17 19 19 19 23 25 24 19 17 19 16 16 18 14 12 12 11 11 9 9 10 8 19 47 69 68 56 52 58 58 44 39 42 34 31 37 44 54 58 54 49 43 37 33 27 21 20 26 32
30 30 32 34 36 37 36 37 37 36 34 33 31 31 30 30 31 30 29 29 32 31 26 23 22 21 21 21 21 21 20 18 16 17 17 18 19 20 19 16 17 19 19 22 24 23 19 18 20 16 16 19 16 13 12 11 12 10 8 9 10 12 29 61 83 80 62 50 48 42 45 59 54 44 45 47 51 49 42 40 41 38 33 27 23 30 42 49
33 34 36 38 40 40 40 39 39 38 36 35 33 32 31 31 30 30 29 30 33 31 27 27 26 24 23 22 21 20 20 20 18 18 17 17 19 19 19 16 17 20 19 21 24 23 20 19 20 17 16 19 17 14 12 11 11 11 10 8 10 11 15 40 77 95 81 58 46 39 42 61 67 59 55 52 48 42 36 34 34 33 28 25 30 41 51 58
36 37 39 42 42 42 41 40 40 39 38 37 35 33 32 31 29 29 29 29 31 29 28 30 30 27 26 24 22 20 19 20 19 19 17 16 17 19 20 19 19 20 19 20 25 24 21 20 20 17 16 18 19 15 12 11 11 10 11 9 8 11 11 24 54 79 78 57 43 41 42 52 63 63 60 58 52 44 39 34 33 33 30 33 42 49 56 65
40 40 41 43 42 42 42 40 40 39 38 37 34 32 30 29 28 27 28 28 28 27 28 31 31 30 29 26 24 20 19 20 19 20 20 17 16 18 21 21 20 20 18 19 25 25 21 20 20 17 16 19 19 17 13 11 11 10 11 10 9 10 9 14 29 42 47 39 29 30 35 39 50 58 58 59 57 50 44 40 42 44 41 43 46 49 59 67
45 43 43 44 42 42 43 41 39 40 39 36 33 31 29 28 28 27 27 28 27 26 27 29 33 34 32 29 26 22 20 20 20 21 21 18 16 17 20 22 20 18 17 19 24 25 21 20 20 17 18 20 19 18 16 11 11 11 11 10 9 10 9 9 13 16 19 20 17 19 25 28 37 47 50 59 62 48 36 36 44 49 45 44 44 46 55 60
51 46 45 46 43 42 45 44 42 41 39 36 33 32 32 31 31 29 27 27 25 25 26 28 36 38 32 30 29 24 21 20 20 21 22 19 17 17 18 21 21 17 17 21 25 25 22 21 21 19 21 22 19 18 17 13 10 11 11 10 9 9 10 9 8 9 10 11 11 12 17 21 28 31 34 56 69 47 26 25 30 35 40 46 52 52 50 54
54 48 46 48 45 43 46 46 44 42 39 36 35 35 36 35 33 31 29 27 25 25 27 29 35 36 33 33 32 28 23 19 20 22 22 21 20 18 18 20 21 18 18 24 27 25 24 22 21 21 22 20 18 18 18 14 11 12 11 10 10 9 10 10 8 8 8 9 8 9 11 12 17 17 21 51 70 45 22 21 19 21 37 56 63 58 53 61
56 49 47 49 48 46 46 46 44 43 40 37 37 37 38 36 35 33 31 29 26 26 28 29 31 32 34 36 35 32 25 20 20 23 24 22 21 21 18 20 22 21 21 26 29 26 24 23 22 21 20 18 17 19 20 15 11 12 12 10 10 9 9 9 8 8 8 8 8 7 9 8 7 9 18 43 52 30 15 18 18 19 35 61 71 64 66 82
58 51 48 49 50 48 45 45 45 44 42 40 38 38 37 36 35 35 33 31 29 27 28 29 29 30 36 38 36 34 28 22 21 23 25 23 22 22 19 18 21 21 22 26 28 25 22 22 21 20 19 19 19 20 21 17 12 12 12 11 11 9 9 9 8 9 8 9 9 9 10 9 7 7 12 22 22 13 11 15 21 29 43 64 76 75 84 100
61 53 49 49 50 48 45 44 45 45 44 43 41 40 38 35 35 35 35 33 31 29 28 30 30 29 35 38 38 37 32 26 23 22 25 25 22 22 20 17 19 20 22 25 26 24 21 21 21 21 21 20 19 20 21 18 13 13 12 11 11 10 9 9 8 9 9 9 9 9 11 13 14 11 9 10 8 8 12 22 39 57 68 75 78 82 93 103
62 53 49 48 48 48 47 44 44 45 46 46 46 44 40 36 36 37 36 34 33 32 30 31 32 30 34 39 40 39 36 31 25 23 25 25 22 21 19 16 16 20 22 23 25 25 23 23 22 23 23 20 18 19 23 21 16 14 14 11 11 10 10 9 9 9 9 9 9 9 10 13 17 16 12 10 9 10 20 41 67 86 93 91 87 91 96 97
61 52 48 47 47 48 46 44 45 46 48 51 51 48 41 37 37 37 37 36 34 33 31 31 33 32 33 38 40 41 41 36 28 24 24 23 22 20 19 17 15 18 22 23 24 25 24 24 23 25 23 19 18 20 23 25 20 15 14 12 10 11 10 10 9 9 9 9 9 9 9 10 12 13 12 13 12 15 27 47 71 86 94 99 100 98 96 94
59 52 48 47 46 44 44 44 46 48 49 53 53 48 41 37 36 37 37 37 35 33 33 31 32 32 31 34 38 40 42 40 32 25 23 22 22 21 20 18 16 17 20 22 24 23 24 23 22 23 22 18 18 19 20 23 20 16 14 13 12 11 11 10 9 9 9 9 10 10 10 8 8 8 8 12 19 32 43 49 57 63 71 94 109 101 94 96
57 54 49 46 43 40 41 43 46 49 51 53 50 44 39 36 35 36 36 37 37 35 34 32 31 31 29 30 33 35 39 43 36 26 24 23 22 22 21 18 16 16 18 20 22 22 23 22 21 22 22 19 17 17 19 22 21 18 16 14 11 11 11 10 9 9 8 8 10 10 10 9 8 8 7 8 18 41 59 56 49 45 52 86 110 102 94 97
56 53 48 46 41 36 38 42 44 48 52 53 49 42 38 36 35 36 36 36 38 36 35 33 31 29 29 28 30 32 39 46 40 29 27 25 22 22 22 19 17 15 15 18 20 21 22 22 21 22 22 18 16 17 19 22 22 19 16 14 12 11 12 11 10 9 8 8 9 10 11 10 8 8 8 8 9 25 48 56 52 46 50 80 106 103 98 98
53 51 49 46 39 34 38 42 44 48 51 53 50 42 38 37 37 38 37 37 39 38 34 33 32 29 28 29 29 31 39 47 44 35 31 28 24 22 22 21 19 16 15 15 17 20 21 22 20 20 19 16 15 17 19 20 21 19 17 16 15 12 12 11 10 9 8 7 9 10 10 9 8 8 7 9 7 8 24 41 50 52 54 75 100 100 93 95
51 51 51 46 38 36 40 43 46 50 53 53 49 42 39 39 40 40 39 38 39 39 35 32 32 30 27 28 29 31 37 44 47 42 37 32 27 23 21 21 20 17 15 14 15 17 20 22 20 17 17 17 17 19 19 17 18 19 18 17 15 13 12 11 10 9 9 8 8 10 10 9 8 8 8 10 9 6 11 24 41 51 54 64 82 86 80 83
49 52 53 46 39 40 44 48 51 53 55 53 46 42 41 40 42 42 40 38 38 40 38 32 32 32 28 27 28 30 36 43 50 50 43 36 30 24 21 20 20 18 16 13 13 15 18 21 20 16 17 18 18 18 17 15 15 19 21 18 15 14 12 11 10 9 9 8 8 9 10 10 8 8 9 9 8 8 9 14 24 33 35 40 55 65 63 69
50 56 56 47 42 45 50 53 54 56 57 53 45 44 44 43 44 41 38 37 37 41 39 32 30 31 29 27 27 29 33 41 50 53 46 39 33 25 22 21 20 19 18 16 13 13 15 18 17 15 16 17 18 17 16 14 13 17 22 19 15 14 13 11 11 10 9 7 8 9 10 10 9 8 8 8 8 8 9 11 14 16 19 25 36 44 47 61
50 57 58 51 47 51 55 56 56 58 56 50 46 48 48 47 44 39 36 36 38 40 39 33 29 29 29 28 27 27 29 35 45 51 47 41 35 29 28 27 23 20 19 17 15 13 13 16 16 15 16 18 18 19 18 17 15 18 22 21 16 14 13 12 10 9 9 7 7 10 10 9 9 8 7 8 9 10 13 16 15 15 20 26 35 43 51 70
51 57 60 59 56 55 56 55 53 54 52 48 49 52 53 50 43 36 35 37 37 37 38 34 29 27 28 27 25 25 26 32 46 56 51 42 39 40 41 38 28 22 21 19 17 15 13 13 15 14 16 17 19 20 20 19 17 18 22 22 19 14 12 13 12 8 8 8 7 9 10 10 9 8 7 8 9 12 16 19 20 23 28 34 50 69 80 89
51 57 64 67 62 54 50 49 48 51 52 51 53 56 55 49 41 36 36 36 37 37 37 34 28 25 27 27 25 23 24 31 48 60 52 42 47 58 61 53 34 21 22 21 18 18 15 13 12 13 15 16 18 21 21 17 14 14 18 21 20 16 12 12 10 8 7 8 7 9 12 12 10 8 7 8 8 11 15 18 20 28 39 52 73 93 99 99
52 60 68 68 58 49 48 47 48 52 54 54 56 56 53 47 40 38 37 37 38 37 35 31 27 25 27 28 25 23 25 31 48 61 52 44 61 76 77 71 47 22 19 20 18 19 18 14 13 11 13 16 17 19 19 16 13 11 14 17 17 14 11 10 9 8 8 8 7 9 11 12 11 9 8 7 7 9 14 20 21 27 46 70 89 100 102 100
58 64 67 62 54 50 49 50 53 57 55 53 56 56 51 45 42 40 39 39 38 35 32 29 26 25 25 27 26 25 30 38 54 65 56 51 67 75 76 82 67 38 24 19 17 19 18 17 15 11 12 15 17 18 17 15 13 11 13 17 18 14 9 8 8 8 8 8 7 8 10 12 12 11 8 7 7 7 11 19 21 23 39 63 79 89 95 94
60 62 59 55 56 56 53 55 60 58 52 51 55 54 49 45 43 43 43 41 37 32 29 27 26 24 24 27 28 28 33 43 56 64 58 54 59 59 66 84 77 53 38 25 16 19 20 19 18 14 12 14 15 17 18 17 15 12 13 16 17 14 10 9 10 9 8 8 7 8 9 11 11 10 8 6 7 8 8 12 17 16 23 39 53 66 80 89
60 60 57 56 61 62 58 57 59 55 50 50 54 53 49 45 44 46 46 42 34 30 28 26 25 24 24 27 29 30 35 43 54 62 59 55 51 51 69 90 79 57 45 33 21 18 19 20 20 16 12 12 14 16 16 17 16 13 12 14 15 13 11 11 12 9 7 7 7 8 9 10 10 9 8 6 6 8 7 8 13 14 15 22 32 46 67 85
64 64 64 63 66 66 60 56 55 53 51 51 54 54 51 46 46 48 47 40 32 29 27 26 24 22 24 29 31 31 34 40 52 61 60 58 58 65 85 103 92 64 45 35 26 20 17 19 20 17 13 11 12 14 15 16 16 14 12 13 15 14 12 12 12 9 8 7 7 8 9 10 11 10 9 7 6 8 9 8 11 14 15 19 26 36 53 78
69 68 69 68 68 67 63 58 56 55 54 55 58 57 51 47 47 48 44 38 33 30 26 25 24 21 24 31 32 32 34 38 50 60 59 64 81 93 102 109 103 85 65 47 34 25 20 19 18 17 15 12 11 13 14 16 16 16 14 13 14 14 12 11 10 8 8 8 8 9 10 10 12 13 13 11 7 6 8 8 10 16 22 26 30 30 37 61
72 72 73 72 69 66 65 63 61 60 61 61 60 56 50 49 48 46 42 37 33 28 24 25 23 20 26 34 33 33 34 37 52 63 63 73 93 100 102 104 103 102 95 73 47 32 25 22 21 18 15 13 12 12 13 16 17 19 17 14 13 13 11 10 9 8 7 8 8 9 11 11 12 17 22 23 16 9 6 7 11 18 24 26 27 25 27 46
Wind_Speed
22 22 22 22 23 23 24 24 24 24 24 24 24 24 24 23 23 21 20 20 20 20 19 18 16 15 14 14 14 14 14 14 13 12 12 12 12 11 11 11 12 14 15 17 18 20 21 22 22 23 25 26 27 27 28 29 29 29 29 29 29 28 28 28 30 30 29 29 31 31 31 33 34 32 31 31 30 29 29 27 25 22 22 24 25 22 18 17
25 24 24 24 25 25 26 27 27 27 27 27 27 27 26 26 25 24 22 20 20 20 20 19 17 16 15 14 14 14 14 15 14 13 12 12 12 12 11 11 11 12 14 15 17 19 20 21 21 22 24 25 26 28 29 30 30 30 30 31 31 30 29 29 29 31 30 29 31 33 32 32 33 34 34 32 31 30 30 29 27 25 24 25 26 24 20 18
28 27 27 28 29 29 29 30 30 31 31 30 30 30 29 28 28 27 25 23 21 21 21 21 19 18 16 15 14 14 14 14 15 15 14 13 12 12 12 11 11 12 13 14 16 18 19 21 21 22 23 24 26 28 29 30 30 31 31 32 33 34 32 31 30 31 32 30 31 32 32 32 32 33 33 33 32 31 30 30 29 30 30 28 27 23 20 19
32 31 31 32 32 33 33 33 33 33 34 34 33 33 32 31 30 29 28 26 24 23 23 22 22 20 19 17 15 15 15 14 15 16 16 15 13 12 12 12 11 11 12 13 15 16 18 20 21 22 22 24 26 28 29 30 30 31 32 33 34 35 34 33 32 32 33 32 31 32 32 31 32 33 32 31 31 32 31 31 31 32 33 33 30 26 23 23
35 35 35 35 36 36 36 36 36 35 36 36 36 35 34 33 32 31 30 29 26 25 24 24 24 23 22 19 17 16 16 15 15 16 17 17 15 13 12 12 12 11 12 12 13 15 17 19 20 21 22 24 26 27 29 30 31 32 33 34 34 34 35 34 34 33 33 32 31 33 33 32 32 33 33 31 31 31 31 32 32 33 34 34 33 30 28 27
37 37 38 38 38 39 39 38 38 38 38 38 38 37 36 35 34 33 32 31 29 27 26 26 26 26 25 23 20 17 17 16 16 16 16 17 18 16 13 13 12 12 12 11 12 14 16 17 19 20 22 24 25 27 29 30 32 33 33 33 34 35 35 34 34 34 34 32 31 32 33 33 33 33 34 33 31 30 30 32 33 35 33 32 32 30 29 29
39 39 40 40 40 41 41 40 40 40 39 39 39 39 38 36 35 34 33 32 31 29 28 28 28 27 27 26 23 20 19 17 16 16 15 16 17 18 16 14 13 12 12 11 12 14 15 16 18 19 21 23 25 27 28 30 32 33 33 33 34 35 35 35 35 35 36 35 33 33 33 34 34 34 34 34 32 30 29 31 34 36 34 29 27 26 26 26
41 42 42 42 42 42 42 42 42 41 41 41 40 40 39 37 36 35 34 33 32 31 30 29 29 29 29 28 26 23 21 19 18 17 16 15 15 17 18 17 15 13 12 11 11 13 14 15 17 19 21 22 24 26 28 29 31 32 33 33 33 34 35 36 36 37 37 37 36 35 34 34 35 34 34 34 34 31 29 30 32 36 35 30 26 24 23 22
43 44 44 44 44 43 43 43 42 42 41 41 40 40 39 38 37 36 35 34 33 32 32 31 30 31 30 30 28 25 23 21 20 19 17 16 15 16 18 18 17 15 13 12 11 12 13 14 16 18 20 22 24 25 26 28 29 31 32 33 33 34 35 35 36 37 38 38 37 36 35 35 35 35 33 33 34 33 30 28 29 34 35 31 28 25 23 22
45 45 45 45 44 44 43 43 42 41 40 40 40 40 39 39 38 37 36 35 34 34 33 33 32 32 32 31 30 27 26 24 22 20 19 18 16 16 16 18 19 17 15 13 11 11 12 13 15 17 20 22 23 24 25 27 28 30 31 32 33 34 35 35 36 37 38 38 37 37 36 36 36 36 34 33 34 34 31 29 31 32 34 32 30 28 26 24
45 45 44 44 43 42 42 42 41 41 40 40 41 41 40 40 40 39 38 37 36 35 34 34 34 34 33 32 31 30 28 26 24 22 21 20 18 17 17 17 19 19 17 15 12 11 12 13 14 16 19 21 22 23 24 26 27 29 30 31 32 33 34 35 36 36 37 38 38 37 37 37 37 37 35 33 33 34 33 32 34 33 33 33 31 29 26 25
43 43 42 41 41 41 41 41 42 42 41 41 42 42 41 41 41 40 40 39 37 36 36 35 35 35 35 34 33 32 30 28 26 25 24 22 20 19 18 17 18 20 20 18 15 12 11 12 13 15 19 21 21 22 23 25 27 28 29 30 31 31 33 35 36 37 37 38 38 38 37 37 38 37 37 35 33 33 34 34 36 36 34 32 32 29 26 23
41 40 40 41 41 41 42 42 42 43 43 43 43 42 42 41 41 41 41 40 39 38 37 37 37 37 36 35 36 34 31 30 29 28 26 24 23 21 20 19 19 19 20 20 17 14 12 12 13 15 18 20 21 21 23 24 26 27 28 28 29 30 32 34 35 36 37 37 38 37 37 36 37 37 38 37 36 34 34 36 38 38 37 34 32 30 27 24
40 40 41 42 42 42 42 42 42 42 42 43 42 42 41 41 41 41 41 41 41 40 39 39 38 38 37 37 38 36 32 32 31 30 29 27 26 24 21 20 20 20 21 21 19 17 14 13 13 15 17 20 20 21 23 24 26 27 27 27 28 29 31 32 34 35 35 36 37 37 36 35 36 37 37 37 37 36 36 38 39 40 40 36 33 31 30 27
41 41 41 42 41 41 41 40 40 40 40 40 39 39 38 38 39 40 41 42 42 41 41 40 40 39 38 38 39 37 34 34 34 33 32 30 28 25 22 22 21 20 21 21 21 19 16 14 13 15 17 19 20 21 23 24 25 25 25 25 26 28 30 31 32 33 33 33 35 35 34 34 34 36 37 37 37 37 37 39 40 42 43 39 36 34 32 32
41 41 40 40 39 38 37 36 35 35 35 34 33 33 33 34 35 37 39 40 41 41 41 41 41 40 39 39 39 38 37 36 37 35 34 32 28 26 25 23 22 22 21 22 22 21 19 16 14 15 16 19 20 21 22 24 25 24 24 25 27 28 29 31 32 31 30 31 32 33 32 32 32 33 34 35 36 37 38 39 41 43 45 43 40 38 36 36
40 39 38 37 35 34 32 31 29 29 29 28 27 27 28 29 30 32 35 37 39 40 41 41 42 41 40 40 39 40 39 38 39 37 35 33 30 29 28 25 24 23 22 22 22 23 22 19 16 15 16 18 20 20 22 24 24 24 25 26 27 28 29 29 30 30 29 29 30 31 31 30 29 29 30 31 33 35 36 37 39 41 44 45 43 42 41 39
37 35 33 32 30 29 27 26 25 26 25 24 23 23 23 24 26 27 30 32 35 37 39 40 41 41 41 40 40 40 40 40 40 38 36 34 32 31 29 27 26 25 24 22 22 24 24 21 18 16 17 18 20 20 22 24 25 24 25 26 28 28 28 28 28 27 26 27 28 29 29 28 28 28 28 28 30 31 32 34 35 37 40 42 42 42 43 42
32 30 28 27 26 26 25 24 24 25 24 23 22 21 20 20 21 23 24 26 29 31 34 36 38 39 40 40 40 41 41 41 40 39 38 36 34 32 31 29 28 27 26 23 22 24 26 23 20 18 18 19 20 20 22 24 25 25 24 26 28 28 28 28 27 27 25 25 26 28 28 27 26 27 27 28 29 30 30 30 31 34 36 38 39 40 42 43
28 26 25 24 25 25 24 24 24 25 24 23 22 21 19 19 19 19 20 22 24 26 29 31 32 34 36 37 39 41 42 41 40 40 39 37 35 33 32 31 30 29 27 23 22 26 28 25 22 20 19 19 20 20 22 24 25 25 24 25 27 27 27 27 27 26 25 25 26 27 28 27 26 27 28 28 29 30 30 28 28 30 33 35 36 38 39 40
25 24 24 24 25 25 24 23 24 24 23 23 22 21 20 20 20 19 19 20 21 23 25 27 28 29 30 33 36 39 41 42 41 41 40 38 36 35 35 32 31 30 27 24 24 27 29 26 23 22 20 20 20 20 21 23 25 25 24 24 25 26 26 26 27 27 26 25 26 26 27 27 27 28 29 28 28 29 30 28 26 27 30 32 34 34 35 35
24 24 24 24 24 24 23 21 21 21 21 21 21 21 20 21 21 21 20 20 21 23 23 24 25 25 27 29 33 35 39 42 41 41 41 38 36 37 36 33 31 30 27 25 27 29 30 26 25 25 22 21 21 21 22 23 25 25 24 23 24 26 26 25 27 28 27 26 27 26 26 28 28 29 29 29 28 28 29 28 27 27 28 29 30 31 31 31
24 23 23 22 22 22 20 19 19 20 19 19 19 19 20 20 22 22 22 21 23 24 23 23 23 22 25 27 30 33 36 39 39 40 40 39 38 39 38 35 33 31 28 28 29 31 31 26 26 27 23 22 22 22 22 22 25 25 24 23 24 26 27 26 27 28 29 29 29 28 26 27 29 29 29 29 28 28 29 28 27 28 28 27 27 27 27 27
23 22 21 21 21 21 20 19 20 20 20 20 19 19 20 21 22 23 23 22 24 25 24 23 22 21 23 25 29 31 33 34 35 38 41 40 40 40 39 36 33 31 30 30 30 32 31 26 28 29 24 24 24 23 22 22 24 25 24 24 24 26 28 28 27 28 29 30 30 29 27 27 29 28 28 28 28 28 28 27 26 26 27 26 26 25 24 24
22 21 20 20 22 22 22 21 21 21 22 22 21 21 21 22 23 24 24 24 25 26 24 24 23 22 23 24 28 30 30 32 34 37 40 41 41 40 39 36 34 33 32 30 31 33 31 27 29 30 26 25 25 24 23 22 24 24 24 24 24 25 27 29 29 29 31 31 31 30 28 28 29 29 28 28 28 28 27 26 25 24 25 26 25 24 23 22
22 21 21 22 23 23 23 23 23 23 24 24 24 24 24 25 26 26 26 26 26 26 25 24 24 24 24 24 26 26 27 31 33 35 38 40 41 40 39 38 36 35 33 31 31 33 32 28 30 31 28 26 26 25 24 23 23 23 23 24 23 24 27 29 30 31 33 33 32 32 31 29 30 30 28 27 27 27 26 25 24 23 24 25 25 24 23 22
22 22 23 24 24 24 25 24 24 25 25 25 25 25 26 27 28 28 28 29 28 27 25 24 25 24 24 24 24 24 25 29 30 33 38 40 41 41 39 39 39 37 35 32 32 35 33 29 30 32 28 27 27 25 24 24 23 21 22 23 24 25 27 28 30 31 34 34 32 33 33 31 30 30 28 27 27 27 26 24 23 23 23 23 23 24 24 22
24 25 25 26 26 25 26 26 25 25 25 25 25 26 27 27 28 29 30 31 30 27 25 24 25 25 25 24 24 23 25 27 28 32 37 38 37 39 40 40 41 39 35 32 34 36 33 29 31 32 28 28 28 26 25 25 23 20 22 23 24 25 26 26 28 31 32 33 32 32 34 32 30 30 28 26 26 26 25 25 24 23 23 23 23 24 24 22
26 26 26 27 27 25 26 26 26 25 25 25 25 26 27 27 28 28 29 32 31 28 26 24 24 26 26 24 24 24 25 26 26 30 35 34 35 39 41 42 42 38 34 33 34 35 32 31 32 30 29 30 30 26 25 26 23 20 22 23 22 24 25 26 28 29 30 32 32 31 33 33 31 30 28 26 27 26 25 26 25 25 24 23 23 23 23 21
27 28 27 27 27 26 26 26 26 26 25 25 25 26 26 27 28 28 28 30 30 28 27 25 25 28 26 24 23 24 24 24 23 27 32 33 34 38 41 42 41 38 35 34 35 35 35 33 31 30 31 32 31 28 26 26 22 20 22 22 21 23 23 25 27 27 27 30 31 30 32 33 33 31 29 28 29 28 26 26 26 26 25 23 22 21 21 20
29 29 28 27 27 27 26 26 26 26 26 26 26 27 27 27 28 28 29 29 28 28 29 27 27 27 26 25 24 24 23 22 22 25 31 32 34 38 41 42 42 40 37 37 38 39 37 34 32 33 34 33 31 28 27 26 23 22 22 21 21 22 22 23 25 25 25 28 28 29 30 32 33 32 30 30 30 29 28 27 27 26 25 23 23 21 21 21
30 30 29 28 27 27 27 26 26 27 27 27 28 28 28 28 28 28 29 29 28 27 28 28 28 26 26 26 25 24 22 21 21 23 28 31 34 38 42 43 43 41 40 40 41 41 38 34 34 34 33 32 31 29 28 27 24 23 22 21 21 22 21 23 24 23 24 26 26 27 29 31 31 30 30 31 31 30 29 28 27 26 25 24 24 22 22 22
31 31 30 29 27 27 27 27 27 27 28 28 29 30 29 28 27 27 28 29 28 28 27 28 29 27 26 27 26 24 22 21 21 22 25 30 33 37 41 42 42 41 41 42 41 40 37 35 34 32 32 33 33 31 29 27 25 23 23 23 22 22 22 22 23 23 24 25 25 27 29 30 29 29 29 30 29 29 29 28 27 25 25 25 24 22 21 21
32 32 31 29 28 28 28 28 27 27 28 29 30 31 30 28 27 26 27 28 29 29 27 27 29 28 26 28 27 24 22 21 21 21 24 27 29 33 38 40 40 41 42 42 41 39 37 36 34 32 34 36 34 31 29 27 26 24 25 26 23 21 21 22 23 23 24 25 26 27 29 29 29 29 29 28 28 29 29 28 27 26 26 25 24 22 21 21
33 33 32 30 29 28 29 28 28 28 28 29 31 32 30 28 27 26 25 26 28 29 27 27 29 29 28 28 28 26 23 21 20 21 23 24 24 29 34 37 39 41 43 42 42 41 40 38 37 37 39 38 34 32 32 30 28 27 27 26 23 21 22 23 24 25 25 25 25 26 28 29 30 30 28 26 28 29 30 29 28 27 27 26 23 22 21 21
34 34 33 31 30 30 30 29 28 28 29 30 32 32 30 29 27 26 25 25 27 28 28 29 31 33 32 30 30 28 24 22 21 21 22 22 22 26 31 35 39 41 43 44 44 43 42 41 41 41 41 39 36 34 32 31 30 28 26 26 24 22 23 24 25 26 26 24 23 25 28 29 31 30 26 26 28 30 30 30 29 28 27 25 23 22 21 21
35 35 34 33 32 31 30 29 29 29 29 31 32 31 30 29 28 26 26 25 24 26 28 30 32 34 33 32 31 29 25 22 22 22 21 22 23 25 29 33 37 41 44 45 45 44 44 44 43 41 41 40 37 34 31 31 30 29 28 28 27 24 23 24 25 26 26 25 24 26 28 30 31 29 27 27 29 30 31 31 30 28 27 25 24 23 22 21
36 36 35 35 34 32 31 30 30 30 30 31 32 31 30 29 28 27 27 25 24 25 28 30 33 34 33 33 32 29 25 24 24 22 20 23 24 24 27 30 34 40 43 44 44 44 45 44 43 42 42 42 37 34 33 33 32 32 30 29 28 25 24 25 26 27 27 25 24 25 28 31 31 29 28 29 30 31 32 32 31 29 27 26 26 24 23 22
37 37 37 37 35 33 32 32 31 31 31 32 32 31 30 29 29 28 27 26 26 27 27 30 33 34 33 33 32 30 28 27 26 23 21 23 24 24 26 29 32 38 41 43 44 45 45 44 44 44 44 41 36 34 35 36 35 33 31 29 30 28 26 26 27 27 27 25 24 24 28 31 31 29 28 29 30 31 32 32 32 30 28 27 27 26 25 24
38 38 38 38 36 34 34 34 33 33 33 34 33 32 30 29 29 29 28 27 29 29 29 29 33 35 34 32 33 32 30 29 26 24 23 24 25 26 27 28 31 35 39 42 45 45 44 44 45 45 44 41 37 36 38 38 36 33 32 32 32 29 28 28 28 27 27 25 24 24 27 29 29 28 27 28 29 30 31 32 32 31 30 29 29 28 27 26
39 40 40 40 38 36 36 36 35 35 36 36 34 32 31 29 30 30 29 28 30 30 30 29 32 35 35 33 34 33 32 30 28 27 26 26 26 27 26 27 29 32 35 40 44 44 43 45 47 46 44 42 40 40 40 39 36 34 34 34 33 31 30 29 28 27 27 26 24 23 25 27 26 26 26 27 28 28 30 31 31 31 31 31 31 30 29 28
40 41 42 41 39 38 38 38 37 38 38 37 35 33 32 31 31 32 30 29 30 31 31 32 33 34 35 36 36 36 35 33 31 30 29 27 27 26 24 25 27 29 32 36 41 43 44 47 49 46 44 42 41 40 40 38 35 34 34 36 35 33 31 29 29 29 29 26 23 22 24 25 25 26 27 27 27 27 29 29 30 30 30 30 30 29 29 28
41 42 43 42 41 40 40 39 39 40 40 38 35 35 34 33 34 33 31 30 31 31 32 34 35 35 36 38 38 37 36 35 32 31 30 28 27 25 23 24 26 28 31 34 37 41 44 47 49 46 43 42 41 40 40 38 36 35 36 37 36 35 33 31 31 31 28 26 23 22 23 25 26 27 27 26 26 26 27 28 28 29 29 29 28 28 27 27
43 43 44 43 42 43 42 41 41 41 40 37 36 36 36 36 37 34 32 32 32 31 30 33 38 38 37 39 40 37 36 34 31 31 32 29 25 23 23 25 26 27 29 32 34 38 43 48 49 46 44 43 42 42 43 44 42 40 40 39 38 37 34 32 34 32 27 25 23 21 22 25 26 28 27 25 25 25 26 28 28 29 29 29 28 27 27 27
45 44 44 44 45 45 44 42 41 40 40 38 38 38 38 39 38 36 35 34 33 31 30 33 40 39 36 39 40 36 34 34 33 33 34 29 25 23 23 25 28 29 30 31 32 35 41 46 47 46 45 44 44 45 47 49 46 44 43 42 41 40 37 35 35 30 26 25 22 21 22 25 27 28 26 26 25 25 26 28 29 29 29 29 29 29 29 28
46 45 46 47 47 46 44 42 40 40 40 39 39 40 40 41 40 38 37 36 34 33 31 34 41 40 37 39 40 35 33 33 34 34 33 28 25 24 23 24 27 29 30 32 32 35 39 42 44 44 43 44 47 50 51 51 47 43 41 41 42 41 39 37 34 29 26 24 23 23 23 25 26 26 26 27 26 25 27 29 30 30 30 30 30 30 30 30
48 47 48 48 47 46 44 42 41 42 41 40 40 42 42 42 41 40 40 39 36 35 32 34 40 42 38 39 40 37 36 36 35 34 32 29 26 25 23 23 25 27 29 31 33 35 36 38 40 42 43 45 50 51 51 49 45 41 39 40 42 42 39 34 31 29 26 25 24 24 23 23 24 26 28 28 26 25 26 28 29 30 31 31 30 30 30 30
49 49 49 48 46 46 44 43 43 43 42 41 42 44 44 42 42 42 42 41 39 36 33 33 40 42 39 39 41 40 40 40 37 36 34 31 29 26 22 22 24 26 26 28 33 35 34 35 38 40 43 47 50 50 49 48 45 43 41 42 43 43 38 33 30 30 28 26 24 22 21 23 24 26 29 27 24 24 25 26 28 29 31 32 32 31 31 31
50 49 49 47 46 47 46 44 45 44 43 43 44 46 45 43 42 43 43 43 41 37 33 34 40 43 39 40 43 43 44 43 40 37 36 32 28 24 20 20 23 23 22 24 31 35 36 36 38 41 45 48 50 52 51 50 49 47 44 43 43 42 38 33 33 32 28 25 22 20 21 22 22 24 28 26 24 24 25 26 28 31 31 33 34 33 32 32
49 49 49 48 47 48 48 47 47 46 46 46 46 47 46 45 44 44 44 44 41 38 34 35 40 42 39 41 45 46 46 44 40 38 35 31 26 22 18 18 19 20 20 23 29 34 36 37 38 41 45 47 50 51 51 49 50 48 45 43 43 42 39 36 35 33 27 23 20 18 18 19 19 22 27 27 25 24 25 27 29 31 32 33 34 34 34 34
51 50 51 51 50 50 51 50 49 49 48 48 49 48 48 47 46 46 45 43 41 38 35 36 41 42 39 41 46 47 46 43 39 36 33 30 26 22 19 18 19 18 19 23 28 31 33 36 38 41 44 46 47 47 47 47 48 47 45 43 44 44 42 39 36 33 27 23 19 17 17 17 18 21 25 26 26 25 25 27 28 31 32 33 34 35 35 36
53 53 54 54 54 54 53 53 52 52 51 52 52 50 49 49 48 46 45 41 39 38 36 37 41 41 40 44 49 49 46 41 37 34 32 31 29 25 22 21 22 21 20 23 27 30 32 34 37 41 45 46 46 46 47 47 47 46 47 47 46 45 43 39 36 31 26 23 21 20 19 19 20 21 23 25 27 27 27 27 27 29 31 31 33 35 36 37
Wind_Direction
274 277 280 284 287 290 292 293 294 295 296 297 298 298 298 298 297 297 296 296 296 296 296 298 302 305 305 305 309 311 311 307 300 292 285 281 278 276 271 264 256 249 246 244 242 241 240 237 235 235 232 229 228 228 228 228 228 226 224 224 225 224 223 222 221 221 223 225 223 221 220 220 222 225 225 227 229 230 233 233 230 234 236 235 238 242 245 250
274 276 279 282 285 287 289 291 292 293 294 295 296 296 296 295 295 295 294 293 292 292 291 292 294 297 298 298 300 305 309 309 306 300 291 285 281 279 275 269 262 253 247 243 241 240 239 237 233 233 233 231 228 227 227 227 227 226 224 223 224 224 224 223 223 223 224 226 225 223 223 223 225 228 230 232 234 232 232 232 227 226 232 234 237 239 243 249
272 274 277 280 283 285 286 287 289 290 291 292 293 293 294 293 292 292 291 289 289 289 288 287 288 289 291 291 291 293 298 304 307 305 299 292 285 281 278 274 269 259 251 244 242 239 238 236 233 230 231 232 231 229 227 226 227 227 225 223 224 225 226 226 226 227 227 228 227 225 225 226 226 228 232 235 237 236 234 232 229 227 230 234 235 237 242 250
270 271 274 276 279 282 284 285 285 286 288 288 289 290 290 290 289 288 287 286 285 285 285 284 284 283 284 286 287 285 285 290 298 302 302 298 291 285 281 277 272 267 258 249 244 239 237 237 233 230 228 230 231 231 230 227 227 227 226 225 225 225 227 226 227 228 228 230 229 227 226 227 227 228 231 235 238 238 237 234 232 231 232 235 238 238 240 248
272 273 274 275 277 279 281 282 283 283 284 285 286 286 287 287 286 285 284 283 281 281 281 281 281 281 281 281 282 282 280 280 285 292 299 300 297 292 286 280 276 272 266 256 249 242 237 236 235 232 228 228 229 230 231 229 228 228 228 228 226 225 227 227 227 228 228 230 230 228 227 228 228 229 230 233 236 238 239 237 233 232 233 235 238 241 243 247
275 275 276 276 277 279 279 280 281 281 281 282 283 283 284 284 283 282 281 280 279 278 277 277 278 279 279 278 278 278 277 276 276 281 289 296 298 296 291 285 279 276 272 264 256 247 240 237 235 233 231 229 228 229 230 230 229 228 230 231 230 227 227 228 228 229 230 231 231 229 228 230 231 231 231 231 234 237 239 239 235 231 232 235 238 243 246 247
277 277 277 278 278 279 280 280 280 280 280 280 280 281 281 281 280 279 278 277 277 275 274 274 275 276 277 277 276 275 274 273 273 273 277 284 292 295 294 289 284 279 275 270 263 254 244 239 236 234 233 232 230 228 228 229 230 230 232 234 232 230 229 230 230 231 232 233 234 233 233 233 234 233 232 232 233 235 237 238 237 231 228 232 237 240 244 247
278 279 279 279 279 279 279 279 279 279 279 279 279 279 279 278 278 277 276 275 274 274 273 272 272 273 274 274 274 274 273 271 269 267 267 271 280 288 292 291 287 283 278 274 270 262 250 243 239 235 233 233 232 231 229 230 231 232 233 234 234 232 232 232 231 231 232 233 233 234 236 236 235 235 234 234 233 233 234 235 238 237 229 225 230 232 237 243
279 279 279 279 279 279 278 278 278 278 278 278 277 277 277 276 276 275 274 273 272 272 271 271 270 271 271 272 272 273 272 269 267 265 263 263 268 277 285 289 288 285 281 277 274 269 258 249 244 239 235 232 233 232 232 231 232 232 232 234 234 233 234 233 232 231 231 231 231 232 235 236 236 236 236 235 232 230 232 229 230 240 237 227 224 225 228 232
280 280 279 279 279 279 278 278 277 277 277 277 276 275 275 275 274 273 272 271 270 269 269 269 269 269 269 270 271 271 269 267 265 264 262 260 260 265 275 282 285 285 282 278 276 274 265 256 249 245 239 234 232 232 234 234 234 234 233 233 233 233 234 234 233 233 232 231 230 230 232 235 235 236 236 236 233 229 227 221 218 233 242 234 227 224 224 224
280 280 279 279 279 279 279 278 278 277 277 276 275 274 273 273 272 271 270 269 268 267 267 267 267 267 267 268 269 268 266 266 265 264 261 258 256 258 264 272 278 282 282 279 276 275 270 261 254 250 245 238 232 232 234 235 236 235 234 233 233 233 234 234 234 234 234 233 231 231 232 233 234 234 235 235 235 231 224 216 213 224 238 240 235 229 227 226
280 280 280 280 280 279 279 279 278 278 277 276 274 273 272 271 270 269 268 267 266 265 264 264 265 265 265 266 266 265 265 265 264 263 261 258 256 255 257 263 269 275 278 278 275 273 271 264 256 252 249 242 235 233 233 235 236 236 235 234 234 234 234 234 234 234 235 234 232 232 232 232 233 234 235 234 235 233 224 215 213 218 227 236 239 236 232 230
280 280 280 280 280 280 280 279 279 278 277 275 273 272 271 269 268 267 266 265 264 263 262 261 261 262 263 264 264 263 264 264 263 262 261 258 257 254 253 257 262 267 272 275 274 271 269 265 258 252 250 245 238 235 235 235 236 236 236 235 234 235 235 235 234 234 234 234 233 233 232 232 232 233 234 234 233 233 226 218 215 217 219 226 231 234 234 232
281 281 281 281 280 280 280 280 279 278 276 275 274 272 271 268 266 264 263 262 261 260 259 259 258 259 260 261 262 262 261 262 262 262 261 258 256 253 250 253 257 261 265 270 272 269 265 263 259 253 250 246 240 236 236 236 237 237 237 237 237 236 236 236 235 234 234 234 234 233 231 231 232 233 234 235 232 231 228 221 218 217 216 219 222 226 230 231
281 281 281 281 280 280 280 279 278 277 276 276 275 274 272 269 265 262 260 259 258 258 257 257 256 256 257 257 259 260 260 260 260 259 258 256 254 251 249 251 253 255 258 263 267 267 263 260 258 253 250 247 241 237 236 236 237 237 238 239 238 237 237 236 235 234 235 235 234 233 231 230 232 233 235 235 232 229 228 225 222 219 216 218 222 224 225 226
281 281 280 280 280 279 278 278 277 277 277 278 278 277 274 270 266 261 259 257 256 256 256 256 256 255 255 255 256 258 257 257 256 255 255 255 253 251 250 249 250 251 252 256 261 264 262 259 256 253 250 248 242 238 237 236 235 236 237 238 238 237 237 236 235 235 235 235 234 233 232 231 231 233 234 235 234 231 230 228 226 224 222 223 227 228 225 224
280 279 279 278 277 276 276 276 275 276 278 280 281 280 277 274 269 264 260 257 256 255 255 255 255 255 254 253 253 254 254 254 254 253 253 253 252 251 249 248 248 247 247 251 255 259 260 257 255 251 248 248 244 238 237 238 236 234 234 236 237 237 236 236 236 236 234 233 234 234 232 230 229 229 232 233 233 232 231 231 230 229 228 229 231 230 227 226
277 276 275 274 274 273 273 272 273 274 276 279 281 282 281 278 273 267 263 260 257 256 255 254 254 254 253 252 252 252 252 251 252 252 252 251 249 249 248 247 247 246 245 245 249 254 256 255 252 251 248 246 245 240 237 237 237 235 233 234 236 237 237 236 236 236 233 231 233 233 230 228 227 226 228 232 231 230 231 232 233 232 231 231 232 231 230 230
272 271 269 269 269 270 270 270 270 271 272 274 276 279 280 279 275 270 266 263 260 258 256 255 254 254 254 253 252 251 251 250 250 251 250 249 248 247 247 246 245 244 242 241 244 250 252 252 250 248 247 246 244 241 238 238 237 236 234 235 237 238 238 237 235 234 233 231 230 229 228 225 227 227 227 230 232 230 230 232 235 235 232 231 232 232 233 234
266 264 264 265 267 268 268 269 269 269 270 270 271 272 274 274 273 272 269 266 263 261 259 258 256 256 255 253 251 250 250 249 248 248 247 246 245 245 244 243 242 242 240 238 239 244 248 248 247 245 245 245 244 242 241 240 238 237 235 235 237 238 238 238 237 233 231 232 229 225 225 224 224 226 227 229 232 232 231 232 236 237 234 232 232 234 236 237
260 261 263 265 267 269 269 269 270 270 270 270 269 269 268 268 269 269 268 268 267 264 262 261 259 256 254 253 251 250 249 247 246 245 245 244 243 243 242 240 240 239 237 236 236 240 244 244 244 244 242 243 243 241 241 242 241 238 235 235 237 238 237 237 238 235 229 229 230 225 224 224 223 224 226 227 230 233 235 235 237 236 233 232 233 236 238 240
259 262 264 267 268 270 270 271 272 272 272 272 271 270 269 268 267 266 264 265 267 266 265 265 263 259 256 254 252 250 248 247 245 244 243 242 241 241 241 238 238 237 234 234 235 237 241 241 242 243 241 242 242 239 239 241 243 240 236 234 234 236 235 234 237 238 232 229 230 226 222 224 223 223 224 225 228 233 236 238 239 238 235 233 233 235 238 241
261 264 266 268 270 272 272 273 274 274 274 274 273 273 273 271 270 268 264 262 263 264 265 267 266 264 259 256 254 252 250 248 246 244 243 240 238 238 238 236 234 234 231 232 234 237 238 237 240 241 239 240 241 239 237 239 242 242 237 233 231 231 231 232 235 239 237 233 231 226 220 223 225 223 223 224 227 232 235 236 238 239 238 236 235 236 239 242
264 265 267 268 270 272 272 272 273 274 275 275 275 275 275 274 273 271 267 263 262 262 263 265 266 266 262 257 254 251 250 249 247 244 241 238 236 235 236 234 231 231 229 230 233 237 236 233 238 241 238 238 241 240 237 237 240 242 240 236 231 228 227 227 232 237 240 238 235 228 220 221 227 226 224 224 227 232 234 234 236 238 238 237 236 238 240 242
265 265 265 266 268 270 269 270 271 273 275 276 276 275 275 275 274 272 270 265 262 262 261 262 264 264 263 260 256 253 251 249 245 242 239 237 235 234 234 233 231 230 228 227 231 236 234 229 235 239 236 236 239 240 238 236 239 240 239 238 235 231 226 222 225 233 239 239 239 237 227 221 226 228 227 226 229 231 233 234 235 236 235 235 236 238 239 241
264 264 263 265 266 268 268 269 271 273 275 276 276 276 276 275 274 272 271 267 263 262 260 260 261 261 262 264 263 259 254 250 246 242 240 236 233 232 232 232 230 228 226 224 229 235 232 226 232 237 235 235 238 239 240 238 237 238 238 237 235 233 228 221 218 225 236 238 238 240 236 227 225 227 228 229 231 231 232 233 235 235 232 232 237 239 239 239
264 263 263 265 266 267 269 270 272 275 276 277 278 279 278 277 275 273 270 267 264 262 260 259 259 259 262 265 266 263 256 251 248 243 239 235 231 229 229 229 228 227 224 222 226 233 231 225 231 237 235 234 236 237 240 239 235 236 238 235 233 231 228 223 217 220 230 236 235 237 238 233 226 225 226 228 231 232 232 232 233 234 232 232 236 238 238 239
264 262 263 265 266 268 271 272 274 276 277 278 280 281 280 279 277 273 270 267 265 263 260 259 259 259 259 261 264 264 257 251 246 242 240 236 232 229 227 228 228 225 222 220 225 231 230 226 230 235 234 235 236 235 238 240 235 233 237 235 232 231 229 226 221 218 223 231 232 233 237 236 230 226 225 226 230 232 233 232 230 231 233 236 237 235 236 239
263 262 264 266 268 269 272 273 274 275 275 277 279 281 282 282 280 277 273 269 267 265 262 259 258 257 256 257 261 263 260 254 247 244 242 237 231 229 227 227 227 224 221 221 226 230 229 226 228 232 233 234 236 233 235 239 235 232 237 234 232 232 229 227 224 219 219 225 228 229 234 236 234 231 227 225 229 233 235 234 230 229 233 236 234 232 233 235
262 263 265 268 270 271 272 273 274 274 273 275 276 279 281 283 282 282 279 274 271 267 263 257 253 254 255 256 259 262 262 258 251 245 242 236 229 227 226 226 227 223 219 221 225 228 226 224 225 228 230 232 234 232 233 238 236 234 236 234 233 231 227 227 226 221 220 223 224 225 229 233 234 233 230 228 232 235 236 234 231 228 229 231 229 229 230 231
262 264 265 268 271 272 271 272 272 272 272 272 273 274 276 280 283 285 284 281 276 269 263 257 253 254 255 255 256 260 262 260 253 245 241 235 227 225 224 223 223 221 217 219 223 225 224 221 222 226 228 231 233 233 233 236 235 234 236 234 234 231 227 227 226 223 222 224 223 224 227 230 232 232 230 230 233 236 235 233 231 228 226 227 228 224 224 228
264 265 266 268 271 271 271 270 271 271 270 271 271 271 272 276 280 283 285 284 281 273 266 260 256 253 252 253 252 255 259 259 255 247 242 236 227 224 223 222 221 219 216 218 221 223 222 220 221 225 228 231 232 231 231 233 233 234 236 235 233 231 227 227 226 223 223 223 222 224 227 230 231 231 230 230 232 233 233 231 229 229 227 227 228 223 220 224
265 266 267 268 270 271 270 270 270 269 269 269 270 270 271 275 278 281 282 282 281 276 269 263 259 254 250 251 251 252 255 256 255 251 245 238 229 224 224 222 221 219 217 219 221 223 222 220 221 225 228 231 230 229 229 231 232 234 236 234 231 229 227 227 226 222 222 221 220 224 227 229 231 229 227 228 228 228 228 228 227 229 230 230 229 225 222 225
265 266 267 268 269 270 270 269 269 269 269 269 270 270 270 274 276 278 279 280 277 273 269 263 259 254 249 248 249 250 251 253 252 250 247 242 233 227 226 223 220 219 219 219 220 222 222 220 220 222 227 228 227 226 226 228 230 231 234 233 228 227 227 227 227 222 220 219 219 223 227 229 230 228 224 224 226 225 223 223 225 227 230 233 231 228 227 230
265 266 267 268 269 269 269 270 270 269 269 269 270 269 270 272 274 276 278 277 275 271 267 260 255 251 246 244 245 245 245 248 249 247 247 246 237 229 227 224 221 219 219 219 219 219 219 219 218 219 224 226 223 222 222 223 225 227 232 233 228 227 228 226 226 222 218 217 217 223 227 229 230 229 223 221 223 225 224 223 224 226 229 233 233 231 230 232
265 267 268 269 269 269 270 271 271 270 269 269 269 269 269 271 272 275 276 275 275 272 265 258 252 249 244 241 241 240 240 242 245 245 247 246 239 231 226 222 220 220 220 219 219 218 218 218 217 218 222 224 222 221 220 220 224 226 231 235 230 227 227 226 225 223 218 213 213 221 227 229 231 230 226 223 222 225 229 229 228 227 229 232 234 233 231 230
266 267 268 269 269 269 270 272 271 271 270 270 270 270 269 270 272 274 275 276 276 271 263 256 252 251 248 243 240 238 237 239 241 242 244 243 238 232 227 221 219 220 220 219 219 218 218 218 217 217 222 223 221 221 220 220 223 224 228 233 230 225 228 229 226 225 219 211 210 219 226 229 231 229 228 227 224 223 228 233 234 232 231 231 233 234 233 231
266 268 269 271 271 270 271 272 272 272 272 272 273 271 270 271 273 274 275 278 278 271 261 254 252 254 252 248 243 239 234 235 239 238 239 241 239 234 231 225 220 220 221 220 219 218 219 219 218 217 221 222 220 218 219 219 220 221 224 230 232 226 227 230 228 226 222 213 210 217 225 229 230 227 226 229 228 224 225 229 233 235 233 231 231 233 234 233
267 269 271 273 273 273 273 274 274 275 276 276 275 273 271 272 274 275 276 280 281 274 263 254 250 251 250 247 244 240 232 232 236 237 236 239 239 235 232 228 221 220 220 221 220 219 219 220 219 217 219 222 219 218 220 219 217 218 221 227 231 228 225 229 229 227 223 215 210 216 225 229 230 227 225 228 231 229 226 226 229 232 233 230 229 230 232 232
269 271 272 274 275 276 276 277 278 279 279 279 277 275 274 273 275 276 276 279 283 279 270 258 250 249 249 245 241 238 232 230 233 236 235 237 238 235 233 231 226 222 219 219 219 218 218 221 221 219 218 220 218 217 220 219 215 216 219 224 229 229 227 228 229 228 226 219 211 215 225 230 231 229 225 226 229 231 230 229 228 230 232 230 228 228 229 229
271 273 274 275 276 277 278 279 280 281 281 280 279 278 277 276 276 276 276 278 283 284 277 262 250 246 247 245 239 235 231 228 228 232 234 236 239 237 234 233 232 228 222 220 220 218 216 220 222 218 216 218 218 218 220 219 214 212 217 223 227 228 228 228 229 229 227 220 212 214 225 230 231 231 227 224 226 229 233 234 234 234 233 231 229 229 229 228
273 274 275 276 277 277 278 279 280 280 280 280 280 281 280 279 277 276 276 279 283 284 278 265 252 243 242 243 239 233 228 225 223 227 231 234 238 239 236 235 235 232 226 222 221 219 216 218 220 217 214 216 218 221 223 223 217 211 215 223 226 227 229 229 229 228 225 220 211 213 223 227 230 231 228 225 224 227 231 235 238 238 236 235 234 233 231 229
273 274 275 276 277 277 277 278 278 279 279 280 282 283 283 281 279 277 278 281 282 282 279 270 257 243 237 238 239 234 229 225 224 227 230 232 236 239 239 238 236 233 229 224 221 219 218 219 220 217 213 214 216 220 223 224 221 213 214 222 226 226 226 228 230 227 223 218 210 212 221 224 227 229 227 225 224 225 229 232 235 238 239 240 239 236 234 232
272 273 275 276 276 276 275 275 276 278 280 282 283 283 283 282 281 280 282 283 283 282 280 270 259 247 235 233 236 236 230 223 221 226 230 231 233 235 236 236 234 228 227 226 222 220 219 220 219 215 212 211 213 217 220 222 218 213 212 218 225 227 225 227 229 226 221 217 208 208 220 224 227 230 227 225 224 224 228 230 232 235 238 239 237 235 233 233
273 273 275 275 274 273 274 275 277 280 281 282 281 281 282 283 283 285 285 285 285 284 278 265 258 251 238 232 235 237 231 220 216 223 229 229 229 230 230 233 233 225 221 222 219 219 221 222 220 215 210 209 211 214 219 222 218 213 211 214 220 225 223 224 226 223 220 217 206 202 214 222 226 229 228 226 224 223 226 229 230 231 233 234 233 233 234 234
273 273 273 272 272 274 275 278 279 280 280 279 280 281 282 284 286 288 288 287 286 283 273 261 255 249 237 230 232 234 229 219 215 222 227 225 225 228 228 232 235 230 223 219 215 216 220 222 222 217 211 209 212 214 218 222 221 216 214 217 221 225 223 222 224 222 219 216 207 201 210 220 225 229 229 227 224 223 224 227 229 228 228 230 231 234 237 237
273 272 272 272 274 276 277 278 279 278 277 278 279 281 283 286 288 290 290 289 285 279 268 256 252 247 235 227 227 226 221 216 213 219 224 222 223 226 227 231 236 233 227 222 216 215 217 219 222 219 212 210 214 216 219 222 223 218 215 219 224 228 228 225 225 223 218 214 208 202 206 215 222 227 229 225 223 224 224 226 229 228 227 229 232 236 240 241
272 272 273 274 276 276 276 276 276 276 277 279 280 281 284 286 289 291 291 287 281 274 265 252 247 245 235 224 221 218 215 212 211 215 221 221 223 225 224 230 237 234 230 225 220 216 213 214 218 217 213 211 214 217 219 222 225 222 216 217 223 228 228 227 228 226 219 212 206 199 204 213 219 226 230 225 220 225 227 228 232 232 229 229 232 235 239 243
273 273 274 274 274 274 274 275 275 276 277 279 280 282 284 287 289 291 289 283 276 271 262 249 242 242 233 222 217 214 211 209 208 212 218 220 223 223 221 230 238 234 230 228 224 219 212 208 211 215 213 211 211 214 215 217 222 223 219 217 223 227 226 225 228 226 219 210 202 198 205 213 219 229 235 228 219 221 226 227 230 233 232 232 233 235 237 240
273 274 274 274 273 274 274 275 276 277 278 279 280 282 285 287 288 287 284 279 275 270 260 245 238 237 230 220 216 212 208 206 204 207 212 216 220 219 214 226 237 231 224 222 222 221 214 208 208 211 214 212 211 213 214 215 220 223 221 219 222 227 225 223 226 224 218 209 201 198 205 210 216 229 236 232 223 219 223 224 225 230 233 235 236 236 236 238
273 273 273 274 273 273 274 275 276 277 278 279 280 282 284 285 286 285 281 278 275 269 258 244 237 233 225 217 214 210 206 203 200 203 207 209 212 208 201 214 228 226 219 215 215 216 214 211 208 209 213 213 211 211 213 216 220 224 225 222 221 225 225 223 223 221 213 204 195 196 203 203 209 224 234 236 230 222 220 221 223 227 232 235 237 238 238 239
273 273 273 273 273 273 274 275 276 277 278 278 279 281 283 285 285 283 280 277 273 266 255 241 235 229 218 212 210 205 203 199 196 199 203 207 208 201 196 206 217 218 214 213 213 212 210 210 211 211 212 211 209 208 209 212 216 221 227 226 222 223 224 223 223 220 209 197 191 193 197 197 200 212 224 232 233 228 221 217 220 227 232 235 237 238 239 241